Year,Month,Day,Hour,Minute,Value (Times are PST for temperature in C)
2015,03,06,00,00,2.70
2015,03,06,00,01,2.60
2015,03,06,00,02,2.60
2015,03,06,00,03,2.60
2015,03,06,00,04,2.70
2015,03,06,00,05,2.70
2015,03,06,00,06,2.70
2015,03,06,00,07,2.70
2015,03,06,00,08,2.80
2015,03,06,00,09,2.80
2015,03,06,00,10,2.80
2015,03,06,00,11,2.80
2015,03,06,00,12,2.80
2015,03,06,00,13,2.80
2015,03,06,00,14,2.80
2015,03,06,00,15,2.80
2015,03,06,00,16,2.80
2015,03,06,00,17,2.70
2015,03,06,00,18,2.70
2015,03,06,00,19,2.70
2015,03,06,00,20,2.70
2015,03,06,00,21,2.70
2015,03,06,00,22,2.70
2015,03,06,00,23,2.70
2015,03,06,00,24,2.70
2015,03,06,00,25,2.70
2015,03,06,00,26,2.70
2015,03,06,00,27,2.80
2015,03,06,00,28,2.80
2015,03,06,00,29,2.80
2015,03,06,00,30,2.80
2015,03,06,00,31,2.80
2015,03,06,00,32,2.80
2015,03,06,00,33,2.70
2015,03,06,00,34,2.70
2015,03,06,00,35,2.70
2015,03,06,00,36,2.70
2015,03,06,00,37,2.80
2015,03,06,00,38,2.70
2015,03,06,00,39,2.70
2015,03,06,00,40,2.70
2015,03,06,00,41,2.70
2015,03,06,00,42,2.70
2015,03,06,00,43,2.70
2015,03,06,00,44,2.70
2015,03,06,00,45,2.70
2015,03,06,00,46,2.70
2015,03,06,00,47,2.70
2015,03,06,00,48,2.70
2015,03,06,00,49,2.70
2015,03,06,00,50,2.70
2015,03,06,00,51,2.60
2015,03,06,00,52,2.50
2015,03,06,00,53,2.50
2015,03,06,00,54,2.40
2015,03,06,00,55,2.40
2015,03,06,00,56,2.40
2015,03,06,00,57,2.50
2015,03,06,00,58,2.50
2015,03,06,00,59,2.50
2015,03,06,01,00,2.50
2015,03,06,01,01,2.50
2015,03,06,01,02,2.50
2015,03,06,01,03,2.50
2015,03,06,01,04,2.50
2015,03,06,01,05,2.50
2015,03,06,01,06,2.50
2015,03,06,01,07,2.50
2015,03,06,01,08,2.50
2015,03,06,01,09,2.60
2015,03,06,01,10,2.60
2015,03,06,01,11,2.60
2015,03,06,01,12,2.60
2015,03,06,01,13,2.60
2015,03,06,01,14,2.60
2015,03,06,01,15,2.60
2015,03,06,01,16,2.50
2015,03,06,01,17,2.50
2015,03,06,01,18,2.50
2015,03,06,01,19,2.50
2015,03,06,01,20,2.50
2015,03,06,01,21,2.50
2015,03,06,01,22,2.50
2015,03,06,01,23,2.50
2015,03,06,01,24,2.50
2015,03,06,01,25,2.50
2015,03,06,01,26,2.40
2015,03,06,01,27,2.40
2015,03,06,01,28,2.40
2015,03,06,01,29,2.40
2015,03,06,01,30,2.40
2015,03,06,01,31,2.30
2015,03,06,01,32,2.30
2015,03,06,01,33,2.30
2015,03,06,01,34,2.30
2015,03,06,01,35,2.30
2015,03,06,01,36,2.30
2015,03,06,01,37,2.30
2015,03,06,01,38,2.30
2015,03,06,01,39,2.20
2015,03,06,01,40,2.20
2015,03,06,01,41,2.20
2015,03,06,01,42,2.30
2015,03,06,01,43,2.30
2015,03,06,01,44,2.30
2015,03,06,01,45,2.30
2015,03,06,01,46,2.30
2015,03,06,01,47,2.20
2015,03,06,01,48,2.10
2015,03,06,01,49,2.10
2015,03,06,01,50,2.00
2015,03,06,01,51,2.00
2015,03,06,01,52,2.00
2015,03,06,01,53,2.10
2015,03,06,01,54,2.20
2015,03,06,01,55,2.20
2015,03,06,01,56,2.30
2015,03,06,01,57,2.30
2015,03,06,01,58,2.30
2015,03,06,01,59,2.40
2015,03,06,02,00,2.40
2015,03,06,02,01,2.40
2015,03,06,02,02,2.40
2015,03,06,02,03,2.40
2015,03,06,02,04,2.40
2015,03,06,02,05,2.40
2015,03,06,02,06,2.40
2015,03,06,02,07,2.50
2015,03,06,02,08,2.50
2015,03,06,02,09,2.50
2015,03,06,02,10,2.60
2015,03,06,02,11,2.60
2015,03,06,02,12,2.60
2015,03,06,02,13,2.60
2015,03,06,02,14,2.50
2015,03,06,02,15,2.50
2015,03,06,02,16,2.50
2015,03,06,02,17,2.50
2015,03,06,02,18,2.50
2015,03,06,02,19,2.50
2015,03,06,02,20,2.60
2015,03,06,02,21,2.60
2015,03,06,02,22,2.60
2015,03,06,02,23,2.60
2015,03,06,02,24,2.50
2015,03,06,02,25,2.50
2015,03,06,02,26,2.40
2015,03,06,02,27,2.40
2015,03,06,02,28,2.40
2015,03,06,02,29,2.40
2015,03,06,02,30,2.40
2015,03,06,02,31,2.30
2015,03,06,02,32,2.30
2015,03,06,02,33,2.30
2015,03,06,02,34,2.30
2015,03,06,02,35,2.30
2015,03,06,02,36,2.30
2015,03,06,02,37,2.30
2015,03,06,02,38,2.30
2015,03,06,02,39,2.20
2015,03,06,02,40,2.20
2015,03,06,02,41,2.20
2015,03,06,02,42,2.20
2015,03,06,02,43,2.20
2015,03,06,02,44,2.20
2015,03,06,02,45,2.20
2015,03,06,02,46,2.20
2015,03,06,02,47,2.10
2015,03,06,02,48,2.20
2015,03,06,02,49,2.20
2015,03,06,02,50,2.20
2015,03,06,02,51,2.20
2015,03,06,02,52,2.20
2015,03,06,02,53,2.20
2015,03,06,02,54,2.20
2015,03,06,02,55,2.20
2015,03,06,02,56,2.20
2015,03,06,02,57,2.20
2015,03,06,02,58,2.20
2015,03,06,02,59,2.20
2015,03,06,03,00,2.20
2015,03,06,03,01,2.20
2015,03,06,03,02,2.20
2015,03,06,03,03,2.20
2015,03,06,03,04,2.20
2015,03,06,03,05,2.30
2015,03,06,03,06,2.30
2015,03,06,03,07,2.30
2015,03,06,03,08,2.40
2015,03,06,03,09,2.40
2015,03,06,03,10,2.50
2015,03,06,03,11,2.50
2015,03,06,03,12,2.50
2015,03,06,03,13,2.60
2015,03,06,03,14,2.60
2015,03,06,03,15,2.60
2015,03,06,03,16,2.50
2015,03,06,03,17,2.50
2015,03,06,03,18,2.40
2015,03,06,03,19,2.40
2015,03,06,03,20,2.40
2015,03,06,03,21,2.40
2015,03,06,03,22,2.30
2015,03,06,03,23,2.30
2015,03,06,03,24,2.30
2015,03,06,03,25,2.30
2015,03,06,03,26,2.30
2015,03,06,03,27,2.30
2015,03,06,03,28,2.30
2015,03,06,03,29,2.30
2015,03,06,03,30,2.30
2015,03,06,03,31,2.40
2015,03,06,03,32,2.40
2015,03,06,03,33,2.40
2015,03,06,03,34,2.40
2015,03,06,03,35,2.40
2015,03,06,03,36,2.50
2015,03,06,03,37,2.50
2015,03,06,03,38,2.50
2015,03,06,03,39,2.60
2015,03,06,03,40,2.60
2015,03,06,03,41,2.70
2015,03,06,03,42,2.70
2015,03,06,03,43,2.80
2015,03,06,03,44,2.80
2015,03,06,03,45,2.80
2015,03,06,03,46,2.80
2015,03,06,03,47,2.80
2015,03,06,03,48,2.80
2015,03,06,03,49,2.80
2015,03,06,03,50,2.80
2015,03,06,03,51,2.70
2015,03,06,03,52,2.60
2015,03,06,03,53,2.60
2015,03,06,03,54,2.50
2015,03,06,03,55,2.60
2015,03,06,03,56,2.60
2015,03,06,03,57,2.60
2015,03,06,03,58,2.50
2015,03,06,03,59,2.50
2015,03,06,04,00,2.50
2015,03,06,04,01,2.40
2015,03,06,04,02,2.40
2015,03,06,04,03,2.40
2015,03,06,04,04,2.40
2015,03,06,04,05,2.40
2015,03,06,04,06,2.40
2015,03,06,04,07,2.40
2015,03,06,04,08,2.40
2015,03,06,04,09,2.40
2015,03,06,04,10,2.40
2015,03,06,04,11,2.40
2015,03,06,04,12,2.40
2015,03,06,04,13,2.40
2015,03,06,04,14,2.50
2015,03,06,04,15,2.50
2015,03,06,04,16,2.50
2015,03,06,04,17,2.60
2015,03,06,04,18,2.60
2015,03,06,04,19,2.70
2015,03,06,04,20,2.70
2015,03,06,04,21,2.70
2015,03,06,04,22,2.70
2015,03,06,04,23,2.70
2015,03,06,04,24,2.70
2015,03,06,04,25,2.70
2015,03,06,04,26,2.60
2015,03,06,04,27,2.60
2015,03,06,04,28,2.70
2015,03,06,04,29,2.70
2015,03,06,04,30,2.70
2015,03,06,04,31,2.70
2015,03,06,04,32,2.70
2015,03,06,04,33,2.70
2015,03,06,04,34,2.70
2015,03,06,04,35,2.70
2015,03,06,04,36,2.70
2015,03,06,04,37,2.70
2015,03,06,04,38,2.70
2015,03,06,04,39,2.70
2015,03,06,04,40,2.70
2015,03,06,04,41,2.70
2015,03,06,04,42,2.70
2015,03,06,04,43,2.80
2015,03,06,04,44,2.80
2015,03,06,04,45,2.80
2015,03,06,04,46,2.80
2015,03,06,04,47,2.90
2015,03,06,04,48,2.90
2015,03,06,04,49,2.90
2015,03,06,04,50,2.90
2015,03,06,04,51,2.80
2015,03,06,04,52,2.80
2015,03,06,04,53,2.80
2015,03,06,04,54,2.80
2015,03,06,04,55,2.80
2015,03,06,04,56,2.80
2015,03,06,04,57,2.80
2015,03,06,04,58,2.80
2015,03,06,04,59,2.80
2015,03,06,05,00,2.80
2015,03,06,05,01,2.80
2015,03,06,05,02,2.80
2015,03,06,05,03,2.70
2015,03,06,05,04,2.70
2015,03,06,05,05,2.60
2015,03,06,05,06,2.60
2015,03,06,05,07,2.50
2015,03,06,05,08,2.50
2015,03,06,05,09,2.50
2015,03,06,05,10,2.40
2015,03,06,05,11,2.40
2015,03,06,05,12,2.40
2015,03,06,05,13,2.40
2015,03,06,05,14,2.50
2015,03,06,05,15,2.50
2015,03,06,05,16,2.50
2015,03,06,05,17,2.50
2015,03,06,05,18,2.50
2015,03,06,05,19,2.50
2015,03,06,05,20,2.50
2015,03,06,05,21,2.50
2015,03,06,05,22,2.50
2015,03,06,05,23,2.50
2015,03,06,05,24,2.50
2015,03,06,05,25,2.50
2015,03,06,05,26,2.60
2015,03,06,05,27,2.50
2015,03,06,05,28,2.50
2015,03,06,05,29,2.50
2015,03,06,05,30,2.60
2015,03,06,05,31,2.60
2015,03,06,05,32,2.60
2015,03,06,05,33,2.60
2015,03,06,05,34,2.70
2015,03,06,05,35,2.70
2015,03,06,05,36,2.70
2015,03,06,05,37,2.70
2015,03,06,05,38,2.70
2015,03,06,05,39,2.70
2015,03,06,05,40,2.70
2015,03,06,05,41,2.70
2015,03,06,05,42,2.80
2015,03,06,05,43,2.70
2015,03,06,05,44,2.70
2015,03,06,05,45,2.70
2015,03,06,05,46,2.70
2015,03,06,05,47,2.70
2015,03,06,05,48,2.60
2015,03,06,05,49,2.60
2015,03,06,05,50,2.60
2015,03,06,05,51,2.60
2015,03,06,05,52,2.60
2015,03,06,05,53,2.60
2015,03,06,05,54,2.60
2015,03,06,05,55,2.60
2015,03,06,05,56,2.60
2015,03,06,05,57,2.60
2015,03,06,05,58,2.50
2015,03,06,05,59,2.50
2015,03,06,06,00,2.40
2015,03,06,06,01,2.40
2015,03,06,06,02,2.30
2015,03,06,06,03,2.30
2015,03,06,06,04,2.30
2015,03,06,06,05,2.30
2015,03,06,06,06,2.30
2015,03,06,06,07,2.30
2015,03,06,06,08,2.30
2015,03,06,06,09,2.30
2015,03,06,06,10,2.30
2015,03,06,06,11,2.30
2015,03,06,06,12,2.30
2015,03,06,06,13,2.40
2015,03,06,06,14,2.40
2015,03,06,06,15,2.50
2015,03,06,06,16,2.50
2015,03,06,06,17,2.60
2015,03,06,06,18,2.60
2015,03,06,06,19,2.60
2015,03,06,06,20,2.60
2015,03,06,06,21,2.60
2015,03,06,06,22,2.60
2015,03,06,06,23,2.60
2015,03,06,06,24,2.70
2015,03,06,06,25,2.70
2015,03,06,06,26,2.70
2015,03,06,06,27,2.70
2015,03,06,06,28,2.70
2015,03,06,06,29,2.70
2015,03,06,06,30,2.70
2015,03,06,06,31,2.70
2015,03,06,06,32,2.70
2015,03,06,06,33,2.70
2015,03,06,06,34,2.70
2015,03,06,06,35,2.70
2015,03,06,06,36,2.70
2015,03,06,06,37,2.70
2015,03,06,06,38,2.70
2015,03,06,06,39,2.70
2015,03,06,06,40,2.70
2015,03,06,06,41,2.70
2015,03,06,06,42,2.70
2015,03,06,06,43,2.60
2015,03,06,06,44,2.60
2015,03,06,06,45,2.60
2015,03,06,06,46,2.50
2015,03,06,06,47,2.50
2015,03,06,06,48,2.40
2015,03,06,06,49,2.40
2015,03,06,06,50,2.40
2015,03,06,06,51,2.40
2015,03,06,06,52,2.50
2015,03,06,06,53,2.50
2015,03,06,06,54,2.60
2015,03,06,06,55,2.60
2015,03,06,06,56,2.70
2015,03,06,06,57,2.70
2015,03,06,06,58,2.70
2015,03,06,06,59,2.70
2015,03,06,07,00,2.80
2015,03,06,07,01,2.80
2015,03,06,07,02,2.80
2015,03,06,07,03,2.80
2015,03,06,07,04,2.80
2015,03,06,07,05,2.80
2015,03,06,07,06,2.80
2015,03,06,07,07,2.80
2015,03,06,07,08,2.80
2015,03,06,07,09,2.90
2015,03,06,07,10,2.90
2015,03,06,07,11,2.90
2015,03,06,07,12,2.90
2015,03,06,07,13,2.90
2015,03,06,07,14,2.90
2015,03,06,07,15,2.90
2015,03,06,07,16,2.90
2015,03,06,07,17,2.90
2015,03,06,07,18,2.90
2015,03,06,07,19,2.90
2015,03,06,07,20,2.90
2015,03,06,07,21,2.90
2015,03,06,07,22,2.90
2015,03,06,07,23,2.90
2015,03,06,07,24,2.90
2015,03,06,07,25,2.90
2015,03,06,07,26,2.90
2015,03,06,07,27,2.90
2015,03,06,07,28,2.90
2015,03,06,07,29,3.00
2015,03,06,07,30,3.00
2015,03,06,07,31,3.00
2015,03,06,07,32,3.00
2015,03,06,07,33,3.00
2015,03,06,07,34,3.10
2015,03,06,07,35,3.10
2015,03,06,07,36,3.10
2015,03,06,07,37,3.10
2015,03,06,07,38,3.20
2015,03,06,07,39,3.20
2015,03,06,07,40,3.30
2015,03,06,07,41,3.30
2015,03,06,07,42,3.40
2015,03,06,07,43,3.40
2015,03,06,07,44,3.50
2015,03,06,07,45,3.50
2015,03,06,07,46,3.60
2015,03,06,07,47,3.60
2015,03,06,07,48,3.60
2015,03,06,07,49,3.60
2015,03,06,07,50,3.50
2015,03,06,07,51,3.50
2015,03,06,07,52,3.50
2015,03,06,07,53,3.50
2015,03,06,07,54,3.40
2015,03,06,07,55,3.40
2015,03,06,07,56,3.40
2015,03,06,07,57,3.30
2015,03,06,07,58,3.30
2015,03,06,07,59,3.30
2015,03,06,08,00,3.30
2015,03,06,08,01,3.30
2015,03,06,08,02,3.30
2015,03,06,08,03,3.30
2015,03,06,08,04,3.40
2015,03,06,08,05,3.40
2015,03,06,08,06,3.40
2015,03,06,08,07,3.50
2015,03,06,08,08,3.50
2015,03,06,08,09,3.50
2015,03,06,08,10,3.60
2015,03,06,08,11,3.60
2015,03,06,08,12,3.60
2015,03,06,08,13,3.60
2015,03,06,08,14,3.70
2015,03,06,08,15,3.70
2015,03,06,08,16,3.70
2015,03,06,08,17,3.70
2015,03,06,08,18,3.80
2015,03,06,08,19,3.80
2015,03,06,08,20,3.90
2015,03,06,08,21,3.90
2015,03,06,08,22,3.90
2015,03,06,08,23,4.00
2015,03,06,08,24,4.00
2015,03,06,08,25,4.10
2015,03,06,08,26,4.10
2015,03,06,08,27,4.20
2015,03,06,08,28,4.20
2015,03,06,08,29,4.20
2015,03,06,08,30,4.20
2015,03,06,08,31,4.30
2015,03,06,08,32,4.30
2015,03,06,08,33,4.30
2015,03,06,08,34,4.30
2015,03,06,08,35,4.40
2015,03,06,08,36,4.40
2015,03,06,08,37,4.40
2015,03,06,08,38,4.50
2015,03,06,08,39,4.50
2015,03,06,08,40,4.60
2015,03,06,08,41,4.60
2015,03,06,08,42,4.60
2015,03,06,08,43,4.70
2015,03,06,08,44,4.70
2015,03,06,08,45,4.70
2015,03,06,08,46,4.80
2015,03,06,08,47,4.80
2015,03,06,08,48,4.80
2015,03,06,08,49,4.90
2015,03,06,08,50,4.90
2015,03,06,08,51,5.00
2015,03,06,08,52,5.00
2015,03,06,08,53,5.10
2015,03,06,08,54,5.20
2015,03,06,08,55,5.20
2015,03,06,08,56,5.30
2015,03,06,08,57,5.30
2015,03,06,08,58,5.30
2015,03,06,08,59,5.40
2015,03,06,09,00,5.40
2015,03,06,09,01,5.40
2015,03,06,09,02,5.50
2015,03,06,09,03,5.50
2015,03,06,09,04,5.60
2015,03,06,09,05,5.60
2015,03,06,09,06,5.70
2015,03,06,09,07,5.70
2015,03,06,09,08,5.80
2015,03,06,09,09,5.80
2015,03,06,09,10,5.80
2015,03,06,09,11,5.80
2015,03,06,09,12,5.90
2015,03,06,09,13,5.90
2015,03,06,09,14,5.90
2015,03,06,09,15,5.90
2015,03,06,09,16,5.90
2015,03,06,09,17,6.00
2015,03,06,09,18,6.00
2015,03,06,09,19,6.00
2015,03,06,09,20,6.10
2015,03,06,09,21,6.10
2015,03,06,09,22,6.10
2015,03,06,09,23,6.10
2015,03,06,09,24,6.10
2015,03,06,09,25,6.20
2015,03,06,09,26,6.20
2015,03,06,09,27,6.20
2015,03,06,09,28,6.20
2015,03,06,09,29,6.20
2015,03,06,09,30,6.20
2015,03,06,09,31,6.30
2015,03,06,09,32,6.30
2015,03,06,09,33,6.30
2015,03,06,09,34,6.30
2015,03,06,09,35,6.30
2015,03,06,09,36,6.40
2015,03,06,09,37,6.40
2015,03,06,09,38,6.40
2015,03,06,09,39,6.40
2015,03,06,09,40,6.50
2015,03,06,09,41,6.50
2015,03,06,09,42,6.50
2015,03,06,09,43,6.60
2015,03,06,09,44,6.60
2015,03,06,09,45,6.60
2015,03,06,09,46,6.60
2015,03,06,09,47,6.60
2015,03,06,09,48,6.60
2015,03,06,09,49,6.60
2015,03,06,09,50,6.70
2015,03,06,09,51,6.70
2015,03,06,09,52,6.70
2015,03,06,09,53,6.70
2015,03,06,09,54,6.80
2015,03,06,09,55,6.80
2015,03,06,09,56,6.80
2015,03,06,09,57,6.80
2015,03,06,09,58,6.80
2015,03,06,09,59,6.80
2015,03,06,10,00,6.80
2015,03,06,10,01,6.80
2015,03,06,10,02,6.80
2015,03,06,10,03,6.80
2015,03,06,10,04,6.90
2015,03,06,10,05,6.90
2015,03,06,10,06,6.90
2015,03,06,10,07,6.90
2015,03,06,10,08,6.90
2015,03,06,10,09,7.00
2015,03,06,10,10,7.00
2015,03,06,10,11,7.00
2015,03,06,10,12,7.10
2015,03,06,10,13,7.10
2015,03,06,10,14,7.10
2015,03,06,10,15,7.20
2015,03,06,10,16,7.20
2015,03,06,10,17,7.20
2015,03,06,10,18,7.20
2015,03,06,10,19,7.30
2015,03,06,10,20,7.30
2015,03,06,10,21,7.30
2015,03,06,10,22,7.30
2015,03,06,10,23,7.40
2015,03,06,10,24,7.40
2015,03,06,10,25,7.40
2015,03,06,10,26,7.50
2015,03,06,10,27,7.50
2015,03,06,10,28,7.60
2015,03,06,10,29,7.70
2015,03,06,10,30,7.70
2015,03,06,10,31,7.80
2015,03,06,10,32,7.80
2015,03,06,10,33,7.90
2015,03,06,10,34,7.90
2015,03,06,10,35,8.00
2015,03,06,10,36,8.10
2015,03,06,10,37,8.10
2015,03,06,10,38,8.20
2015,03,06,10,39,8.20
2015,03,06,10,40,8.20
2015,03,06,10,41,8.20
2015,03,06,10,42,8.20
2015,03,06,10,43,8.30
2015,03,06,10,44,8.30
2015,03,06,10,45,8.30
2015,03,06,10,46,8.40
2015,03,06,10,47,8.40
2015,03,06,10,48,8.50
2015,03,06,10,49,8.50
2015,03,06,10,50,8.50
2015,03,06,10,51,8.60
2015,03,06,10,52,8.60
2015,03,06,10,53,8.60
2015,03,06,10,54,8.60
2015,03,06,10,55,8.70
2015,03,06,10,56,8.70
2015,03,06,10,57,8.70
2015,03,06,10,58,8.70
2015,03,06,10,59,8.70
2015,03,06,11,00,8.70
2015,03,06,11,01,8.70
2015,03,06,11,02,8.80
2015,03,06,11,03,8.80
2015,03,06,11,04,8.80
2015,03,06,11,05,8.80
2015,03,06,11,06,8.80
2015,03,06,11,07,8.80
2015,03,06,11,08,8.80
2015,03,06,11,09,8.80
2015,03,06,11,10,8.90
2015,03,06,11,11,8.90
2015,03,06,11,12,9.00
2015,03,06,11,13,9.10
2015,03,06,11,14,9.10
2015,03,06,11,15,9.10
2015,03,06,11,16,9.20
2015,03,06,11,17,9.20
2015,03,06,11,18,9.20
2015,03,06,11,19,9.30
2015,03,06,11,20,9.30
2015,03,06,11,21,9.30
2015,03,06,11,22,9.30
2015,03,06,11,23,9.30
2015,03,06,11,24,9.30
2015,03,06,11,25,9.40
2015,03,06,11,26,9.40
2015,03,06,11,27,9.40
2015,03,06,11,28,9.40
2015,03,06,11,29,9.40
2015,03,06,11,30,9.40
2015,03,06,11,31,9.40
2015,03,06,11,32,9.50
2015,03,06,11,33,9.50
2015,03,06,11,34,9.50
2015,03,06,11,35,9.50
2015,03,06,11,36,9.50
2015,03,06,11,37,9.50
2015,03,06,11,38,9.50
2015,03,06,11,39,9.60
2015,03,06,11,40,9.60
2015,03,06,11,41,9.60
2015,03,06,11,42,9.60
2015,03,06,11,43,9.60
2015,03,06,11,44,9.70
2015,03,06,11,45,9.70
2015,03,06,11,46,9.80
2015,03,06,11,47,9.80
2015,03,06,11,48,9.90
2015,03,06,11,49,9.90
2015,03,06,11,50,10.00
2015,03,06,11,51,10.00
2015,03,06,11,52,10.00
2015,03,06,11,53,10.10
2015,03,06,11,54,10.10
2015,03,06,11,55,10.10
2015,03,06,11,56,10.10
2015,03,06,11,57,10.10
2015,03,06,11,58,10.10
2015,03,06,11,59,10.10
2015,03,06,12,00,10.10
2015,03,06,12,01,10.10
2015,03,06,12,02,10.10
2015,03,06,12,03,10.10
2015,03,06,12,04,10.10
2015,03,06,12,05,10.10
2015,03,06,12,06,10.10
2015,03,06,12,07,10.10
2015,03,06,12,08,10.10
2015,03,06,12,09,10.20
2015,03,06,12,10,10.20
2015,03,06,12,11,10.20
2015,03,06,12,12,10.30
2015,03,06,12,13,10.30
2015,03,06,12,14,10.30
2015,03,06,12,15,10.30
2015,03,06,12,16,10.30
2015,03,06,12,17,10.30
2015,03,06,12,18,10.30
2015,03,06,12,19,10.30
2015,03,06,12,20,10.30
2015,03,06,12,21,10.30
2015,03,06,12,22,10.30
2015,03,06,12,23,10.30
2015,03,06,12,24,10.30
2015,03,06,12,25,10.30
2015,03,06,12,26,10.40
2015,03,06,12,27,10.40
2015,03,06,12,28,10.40
2015,03,06,12,29,10.40
2015,03,06,12,30,10.40
2015,03,06,12,31,10.50
2015,03,06,12,32,10.50
2015,03,06,12,33,10.60
2015,03,06,12,34,10.60
2015,03,06,12,35,10.70
2015,03,06,12,36,10.70
2015,03,06,12,37,10.80
2015,03,06,12,38,10.80
2015,03,06,12,39,10.90
2015,03,06,12,40,10.90
2015,03,06,12,41,11.00
2015,03,06,12,42,11.00
2015,03,06,12,43,11.00
2015,03,06,12,44,11.00
2015,03,06,12,45,10.90
2015,03,06,12,46,10.90
2015,03,06,12,47,10.80
2015,03,06,12,48,10.80
2015,03,06,12,49,10.80
2015,03,06,12,50,10.80
2015,03,06,12,51,10.80
2015,03,06,12,52,10.80
2015,03,06,12,53,10.80
2015,03,06,12,54,10.80
2015,03,06,12,55,10.80
2015,03,06,12,56,10.80
2015,03,06,12,57,10.80
2015,03,06,12,58,10.80
2015,03,06,12,59,10.80
2015,03,06,13,00,10.90
2015,03,06,13,01,10.90
2015,03,06,13,02,10.90
2015,03,06,13,03,10.90
2015,03,06,13,04,10.90
2015,03,06,13,05,10.90
2015,03,06,13,06,11.00
2015,03,06,13,07,11.00
2015,03,06,13,08,11.10
2015,03,06,13,09,11.10
2015,03,06,13,10,11.20
2015,03,06,13,11,11.30
2015,03,06,13,12,11.30
2015,03,06,13,13,11.40
2015,03,06,13,14,11.50
2015,03,06,13,15,11.50
2015,03,06,13,16,11.50
2015,03,06,13,17,11.50
2015,03,06,13,18,11.60
2015,03,06,13,19,11.60
2015,03,06,13,20,11.60
2015,03,06,13,21,11.60
2015,03,06,13,22,11.60
2015,03,06,13,23,11.60
2015,03,06,13,24,11.70
2015,03,06,13,25,11.70
2015,03,06,13,26,11.80
2015,03,06,13,27,11.80
2015,03,06,13,28,11.80
2015,03,06,13,29,11.80
2015,03,06,13,30,11.80
2015,03,06,13,31,11.80
2015,03,06,13,32,11.90
2015,03,06,13,33,12.00
2015,03,06,13,34,12.00
2015,03,06,13,35,12.10
2015,03,06,13,36,12.10
2015,03,06,13,37,12.10
2015,03,06,13,38,12.00
2015,03,06,13,39,12.00
2015,03,06,13,40,11.90
2015,03,06,13,41,11.90
2015,03,06,13,42,11.90
2015,03,06,13,43,11.90
2015,03,06,13,44,11.90
2015,03,06,13,45,11.90
2015,03,06,13,46,11.90
2015,03,06,13,47,11.90
2015,03,06,13,48,11.90
2015,03,06,13,49,11.90
2015,03,06,13,50,11.90
2015,03,06,13,51,11.90
2015,03,06,13,52,11.90
2015,03,06,13,53,11.80
2015,03,06,13,54,11.80
2015,03,06,13,55,11.90
2015,03,06,13,56,11.90
2015,03,06,13,57,11.90
2015,03,06,13,58,11.90
2015,03,06,13,59,11.90
2015,03,06,14,00,11.90
2015,03,06,14,01,11.90
2015,03,06,14,02,12.00
2015,03,06,14,03,12.00
2015,03,06,14,04,12.00
2015,03,06,14,05,12.00
2015,03,06,14,06,11.90
2015,03,06,14,07,11.90
2015,03,06,14,08,11.80
2015,03,06,14,09,11.80
2015,03,06,14,10,11.80
2015,03,06,14,11,11.80
2015,03,06,14,12,11.80
2015,03,06,14,13,11.80
2015,03,06,14,14,11.80
2015,03,06,14,15,11.80
2015,03,06,14,16,11.90
2015,03,06,14,17,11.90
2015,03,06,14,18,12.00
2015,03,06,14,19,12.00
2015,03,06,14,20,12.00
2015,03,06,14,21,12.00
2015,03,06,14,22,12.00
2015,03,06,14,23,12.00
2015,03,06,14,24,12.10
2015,03,06,14,25,12.10
2015,03,06,14,26,12.10
2015,03,06,14,27,12.10
2015,03,06,14,28,12.20
2015,03,06,14,29,12.20
2015,03,06,14,30,12.20
2015,03,06,14,31,12.20
2015,03,06,14,32,12.10
2015,03,06,14,33,12.10
2015,03,06,14,34,12.10
2015,03,06,14,35,12.10
2015,03,06,14,36,12.00
2015,03,06,14,37,12.00
2015,03,06,14,38,12.00
2015,03,06,14,39,12.00
2015,03,06,14,40,12.10
2015,03,06,14,41,12.10
2015,03,06,14,42,12.10
2015,03,06,14,43,12.20
2015,03,06,14,44,12.20
2015,03,06,14,45,12.20
2015,03,06,14,46,12.20
2015,03,06,14,47,12.20
2015,03,06,14,48,12.20
2015,03,06,14,49,12.20
2015,03,06,14,50,12.20
2015,03,06,14,51,12.20
2015,03,06,14,52,12.20
2015,03,06,14,53,12.30
2015,03,06,14,54,12.20
2015,03,06,14,55,12.20
2015,03,06,14,56,12.20
2015,03,06,14,57,12.20
2015,03,06,14,58,12.20
2015,03,06,14,59,12.20
2015,03,06,15,00,12.20
2015,03,06,15,01,12.30
2015,03,06,15,02,12.30
2015,03,06,15,03,12.30
2015,03,06,15,04,12.40
2015,03,06,15,05,12.40
2015,03,06,15,06,12.40
2015,03,06,15,07,12.40
2015,03,06,15,08,12.40
2015,03,06,15,09,12.40
2015,03,06,15,10,12.40
2015,03,06,15,11,12.30
2015,03,06,15,12,12.30
2015,03,06,15,13,12.30
2015,03,06,15,14,12.30
2015,03,06,15,15,12.30
2015,03,06,15,16,12.20
2015,03,06,15,17,12.10
2015,03,06,15,18,12.10
2015,03,06,15,19,12.10
2015,03,06,15,20,12.10
2015,03,06,15,21,12.10
2015,03,06,15,22,12.10
2015,03,06,15,23,12.10
2015,03,06,15,24,12.10
2015,03,06,15,25,12.10
2015,03,06,15,26,12.10
2015,03,06,15,27,12.20
2015,03,06,15,28,12.20
2015,03,06,15,29,12.20
2015,03,06,15,30,12.20
2015,03,06,15,31,12.20
2015,03,06,15,32,12.20
2015,03,06,15,33,12.30
2015,03,06,15,34,12.30
2015,03,06,15,35,12.30
2015,03,06,15,36,12.30
2015,03,06,15,37,12.30
2015,03,06,15,38,12.30
2015,03,06,15,39,12.30
2015,03,06,15,40,12.30
2015,03,06,15,41,12.40
2015,03,06,15,42,12.40
2015,03,06,15,43,12.40
2015,03,06,15,44,12.40
2015,03,06,15,45,12.40
2015,03,06,15,46,12.40
2015,03,06,15,47,12.40
2015,03,06,15,48,12.40
2015,03,06,15,49,12.40
2015,03,06,15,50,12.40
2015,03,06,15,51,12.40
2015,03,06,15,52,12.40
2015,03,06,15,53,12.40
2015,03,06,15,54,12.40
2015,03,06,15,55,12.40
2015,03,06,15,56,12.40
2015,03,06,15,57,12.40
2015,03,06,15,58,12.40
2015,03,06,15,59,12.40
2015,03,06,16,00,12.40
2015,03,06,16,01,12.40
2015,03,06,16,02,12.30
2015,03,06,16,03,12.30
2015,03,06,16,04,12.30
2015,03,06,16,05,12.40
2015,03,06,16,06,12.40
2015,03,06,16,07,12.40
2015,03,06,16,08,12.40
2015,03,06,16,09,12.50
2015,03,06,16,10,12.50
2015,03,06,16,11,12.50
2015,03,06,16,12,12.50
2015,03,06,16,13,12.50
2015,03,06,16,14,12.50
2015,03,06,16,15,12.40
2015,03,06,16,16,12.40
2015,03,06,16,17,12.40
2015,03,06,16,18,12.30
2015,03,06,16,19,12.30
2015,03,06,16,20,12.30
2015,03,06,16,21,12.30
2015,03,06,16,22,12.20
2015,03,06,16,23,12.20
2015,03,06,16,24,12.20
2015,03,06,16,25,12.20
2015,03,06,16,26,12.20
2015,03,06,16,27,12.20
2015,03,06,16,28,12.20
2015,03,06,16,29,12.20
2015,03,06,16,30,12.20
2015,03,06,16,31,12.20
2015,03,06,16,32,12.20
2015,03,06,16,33,12.20
2015,03,06,16,34,12.20
2015,03,06,16,35,12.20
2015,03,06,16,36,12.20
2015,03,06,16,37,12.20
2015,03,06,16,38,12.20
2015,03,06,16,39,12.20
2015,03,06,16,40,12.20
2015,03,06,16,41,12.20
2015,03,06,16,42,12.30
2015,03,06,16,43,12.20
2015,03,06,16,44,12.20
2015,03,06,16,45,12.20
2015,03,06,16,46,12.20
2015,03,06,16,47,12.20
2015,03,06,16,48,12.20
2015,03,06,16,49,12.20
2015,03,06,16,50,12.20
2015,03,06,16,51,12.20
2015,03,06,16,52,12.20
2015,03,06,16,53,12.20
2015,03,06,16,54,12.20
2015,03,06,16,55,12.20
2015,03,06,16,56,12.20
2015,03,06,16,57,12.20
2015,03,06,16,58,12.20
2015,03,06,16,59,12.20
2015,03,06,17,00,12.20
2015,03,06,17,01,12.20
2015,03,06,17,02,12.20
2015,03,06,17,03,12.20
2015,03,06,17,04,12.20
2015,03,06,17,05,12.20
2015,03,06,17,06,12.20
2015,03,06,17,07,12.20
2015,03,06,17,08,12.20
2015,03,06,17,09,12.10
2015,03,06,17,10,12.10
2015,03,06,17,11,12.10
2015,03,06,17,12,12.10
2015,03,06,17,13,12.10
2015,03,06,17,14,12.00
2015,03,06,17,15,12.00
2015,03,06,17,16,12.00
2015,03,06,17,17,12.00
2015,03,06,17,18,12.00
2015,03,06,17,19,11.90
2015,03,06,17,20,11.90
2015,03,06,17,21,11.90
2015,03,06,17,22,11.90
2015,03,06,17,23,11.90
2015,03,06,17,24,11.90
2015,03,06,17,25,11.90
2015,03,06,17,26,11.80
2015,03,06,17,27,11.80
2015,03,06,17,28,11.80
2015,03,06,17,29,11.80
2015,03,06,17,30,11.80
2015,03,06,17,31,11.80
2015,03,06,17,32,11.80
2015,03,06,17,33,11.80
2015,03,06,17,34,11.80
2015,03,06,17,35,11.70
2015,03,06,17,36,11.70
2015,03,06,17,37,11.60
2015,03,06,17,38,11.50
2015,03,06,17,39,11.50
2015,03,06,17,40,11.40
2015,03,06,17,41,11.30
2015,03,06,17,42,11.30
2015,03,06,17,43,11.30
2015,03,06,17,44,11.20
2015,03,06,17,45,11.20
2015,03,06,17,46,11.20
2015,03,06,17,47,11.10
2015,03,06,17,48,11.00
2015,03,06,17,49,10.90
2015,03,06,17,50,10.90